This demonstration page uses our WeatherBlox Daily Observations layout. Learn more.

Left ArrowRight Arrow

31.84235, -102.49876

Hourly Observations for August 9, 2017

Temp ( °F °C ) Dew Point ( °F °C ) Humidity (%) Winds ( mph kmh ) Pressure ( in mb ) Visibility ( mi km ) Precip ( " mm )
12:53 am 00:53 Clear 75 23.9 65 18.3 71 71 SE 9 15 30.01 1016 10 16 0.00 0.00
1:53 am 01:53 Clear 74 23.3 65 18.3 74 74 SE 8 13 30.01 1016 10 16 0.00 0.00
2:53 am 02:53 Clear 73 22.8 65 18.3 76 76 SSE 8 13 30.00 1016 10 16 0.00 0.00
3:53 am 03:53 Clear 72 22.2 65 18.3 79 79 SE 7 11 29.99 1016 10 16 0.00 0.00
4:53 am 04:53 Clear 71 21.7 65 18.3 81 81 SE 6 9 29.99 1016 10 16 0.00 0.00
5:53 am 05:53 Clear 70 21.1 65 18.3 84 84 SE 6 9 30.00 1016 10 16 0.00 0.00
6:53 am 06:53 Mostly Cloudy 70 21.1 65 18.3 84 84 ESE 5 7 30.01 1016 10 16 0.00 0.00
7:53 am 07:53 Mostly Sunny 70 21.1 65 18.3 84 84 E 6 9 30.02 1017 10 16 0.00 0.00
8:53 am 08:53 Partly Cloudy 73 22.8 66 18.9 79 79 SE 7 11 30.03 1017 10 16 0.00 0.00
9:53 am 09:53 Partly Cloudy 77 25 67 19.4 71 71 S 9 15 30.03 1017 10 16 0.00 0.00
10:53 am 10:53 Partly Cloudy 80 26.7 67 19.4 64 64 SSW 9 15 30.04 1017 10 16 0.00 0.00
11:53 am 11:53 Mostly Sunny 83 28.3 67 19.4 59 59 S 6 9 30.04 1017 10 16 0.00 0.00
12:53 pm 12:53 Partly Cloudy 85 29.4 65 18.3 51 51 E 6 9 30.03 1017 10 16 0.00 0.00
1:53 pm 13:53 Partly Cloudy 86 30 64 17.8 48 48 SE 6 9 30.01 1016 10 16 0.00 0.00
2:53 pm 14:53 Sunny 88 31.1 62 16.7 42 42 undefined N/A 29.98 1015 10 16 0.00 0.00
3:53 pm 15:53 Partly Cloudy 90 32.2 62 16.7 39 39 S 8 13 29.96 1015 10 16 0.00 0.00
4:53 pm 16:53 Mostly Sunny 90 32.2 62 16.7 39 39 SE 9 15 29.93 1014 10 16 0.00 0.00
5:53 pm 17:53 Partly Cloudy 90 32.2 61 16.1 38 38 SSE 9 15 29.93 1014 10 16 0.00 0.00
6:53 pm 18:53 Mostly Sunny 91 32.8 61 16.1 37 37 SSE 9 15 29.92 1013 10 16 0.00 0.00
7:53 pm 19:53 Sunny 89 31.7 61 16.1 39 39 SE 7 11 29.92 1013 10 16 0.00 0.00
8:53 pm 20:53 Clear 85 29.4 62 16.7 46 46 ESE 7 11 29.93 1014 10 16 0.00 0.00
9:53 pm 21:53 Clear 84 28.9 62 16.7 48 48 SSE 7 11 29.95 1014 10 16 0.00 0.00
10:53 pm 22:53 Clear 83 28.3 62 16.7 49 49 SSE 8 13 29.98 1015 10 16 0.00 0.00
11:53 pm 23:53 Clear 82 27.8 64 17.8 55 55 SSE 12 19 29.98 1015 10 16 0.00 0.00

Powered by AerisWeather